QPF
0.00 0.00 0.00 0.00 0.00 0.00 0.00 0.00 0.00 0.01 0.06 0.04 0.01 0.00 0.00 0.00 0.00 0.02 0.02 0.01 0.01 0.00 0.00 0.00 0.00 0.00 0.00 0.00 0.00 0.00 0.00 0.00 0.00 0.00 0.00 0.00 0.00 0.00 0.00 0.00 0.00 0.00 0.00
0.00 0.00 0.00 0.00 0.00 0.00 0.00 0.00 0.00 0.01 0.03 0.04 0.01 0.00 0.00 0.00 0.00 0.00 0.02 0.01 0.00 0.00 0.00 0.00 0.00 0.00 0.00 0.00 0.00 0.00 0.00 0.00 0.00 0.00 0.00 0.00 0.00 0.00 0.00 0.00 0.00 0.00 0.00
0.00 0.00 0.00 0.00 0.00 0.00 0.00 0.00 0.00 0.00 0.00 0.00 0.00 0.00 0.00 0.00 0.00 0.00 0.00 0.00 0.00 0.00 0.00 0.00 0.00 0.00 0.00 0.00 0.00 0.00 0.00 0.00 0.00 0.00 0.00 0.00 0.00 0.00 0.00 0.00 0.00 0.00 0.00
0.00 0.00 0.00 0.00 0.00 0.00 0.00 0.00 0.00 0.00 0.00 0.00 0.00 0.00 0.00 0.00 0.00 0.00 0.00 0.00 0.00 0.00 0.00 0.00 0.00 0.00 0.00 0.00 0.00 0.00 0.00 0.00 0.00 0.00 0.00 0.00 0.00 0.00 0.00 0.00 0.00 0.00 0.00
0.00 0.00 0.00 0.00 0.00 0.00 0.00 0.00 0.00 0.00 0.00 0.00 0.00 0.00 0.00 0.00 0.00 0.00 0.02 0.00 0.00 0.02 0.03 0.02 0.02 0.01 0.00 0.00 0.00 0.00 0.00 0.00 0.00 0.00 0.00 0.00 0.00 0.00 0.00 0.00 0.00 0.00 0.00
0.00 0.00 0.00 0.00 0.00 0.00 0.00 0.00 0.00 0.00 0.00 0.00 0.00 0.00 0.00 0.03 0.06 0.07 0.02 0.01 0.01 0.02 0.02 0.03 0.02 0.01 0.00 0.00 0.00 0.00 0.00 0.00 0.00 0.00 0.00 0.00 0.00 0.00 0.00 0.00 0.00 0.00 0.00
0.00 0.00 0.00 0.00 0.00 0.00 0.00 0.00 0.00 0.00 0.00 0.00 0.00 0.01 0.03 0.11 0.18 0.18 0.08 0.04 0.03 0.03 0.03 0.02 0.01 0.00 0.00 0.00 0.00 0.00 0.00 0.00 0.00 0.00 0.00 0.00 0.00 0.00 0.00 0.00 0.00 0.00 0.00
0.00 0.00 0.00 0.00 0.00 0.00 0.00 0.00 0.00 0.00 0.00 0.00 0.03 0.02 0.03 0.02 0.07 0.15 0.17 0.11 0.09 0.07 0.05 0.02 0.01 0.00 0.00 0.00 0.00 0.00 0.00 0.00 0.00 0.00 0.00 0.00 0.00 0.00 0.00 0.00 0.00 0.00 0.00
0.00 0.00 0.00 0.00 0.00 0.00 0.00 0.00 0.00 0.00 0.00 0.00 0.07 0.07 0.00 0.00 0.03 0.06 0.08 0.08 0.05 0.02 0.01 0.01 0.00 0.00 0.00 0.00 0.00 0.00 0.00 0.00 0.00 0.00 0.00 0.00 0.00 0.00 0.00 0.00 0.00 0.00 0.00
0.00 0.00 0.00 0.00 0.00 0.00 0.00 0.00 0.00 0.00 0.00 0.00 0.00 0.01 0.00 0.00 0.01 0.02 0.01 0.00 0.00 0.00 0.00 0.00 0.00 0.00 0.00 0.00 0.00 0.00 0.00 0.00 0.00 0.00 0.00 0.00 0.00 0.00 0.00 0.00 0.00 0.00 0.00
0.00 0.00 0.00 0.00 0.00 0.00 0.00 0.00 0.00 0.00 0.00 0.00 0.00 0.00 0.00 0.00 0.01 0.03 0.03 0.00 0.00 0.00 0.00 0.00 0.00 0.01 0.01 0.00 0.00 0.00 0.00 0.00 0.00 0.01 0.01 0.00 0.00 0.00 0.00 0.00 0.00 0.00 0.00
0.00 0.00 0.00 0.00 0.00 0.00 0.00 0.00 0.00 0.00 0.00 0.00 0.01 0.01 0.01 0.00 0.01 0.00 0.00 0.00 0.00 0.00 0.00 0.00 0.00 0.00 0.00 0.00 0.00 0.00 0.00 0.01 0.06 0.05 0.01 0.00 0.00 0.00 0.00 0.00 0.00 0.00 0.00
0.00 0.00 0.00 0.00 0.00 0.00 0.00 0.00 0.00 0.00 0.00 0.00 0.01 0.01 0.02 0.01 0.00 0.00 0.00 0.00 0.01 0.00 0.00 0.00 0.00 0.00 0.00 0.00 0.00 0.01 0.03 0.11 0.07 0.01 0.00 0.00 0.00 0.00 0.00 0.00 0.00 0.00 0.00
0.00 0.00 0.00 0.00 0.00 0.00 0.00 0.00 0.00 0.00 0.00 0.00 0.00 0.01 0.01 0.01 0.00 0.01 0.01 0.00 0.00 0.00 0.00 0.00 0.00 0.00 0.00 0.02 0.02 0.04 0.05 0.02 0.00 0.00 0.00 0.00 0.00 0.00 0.00 0.00 0.00 0.00 0.00
0.00 0.00 0.00 0.00 0.00 0.00 0.00 0.00 0.01 0.02 0.03 0.03 0.03 0.03 0.01 0.01 0.01 0.01 0.00 0.00 0.00 0.00 0.00 0.00 0.01 0.02 0.03 0.02 0.01 0.01 0.00 0.00 0.00 0.00 0.00 0.00 0.00 0.00 0.00 0.00 0.00 0.00 0.00
0.00 0.00 0.00 0.00 0.00 0.00 0.00 0.01 0.02 0.03 0.03 0.01 0.02 0.01 0.00 0.00 0.00 0.00 0.00 0.00 0.00 0.00 0.00 0.00 0.01 0.00 0.00 0.00 0.00 0.00 0.00 0.00 0.00 0.00 0.00 0.00 0.00 0.00 0.00 0.00 0.00 0.00 0.00
0.00 0.00 0.00 0.00 0.00 0.00 0.00 0.01 0.02 0.01 0.01 0.00 0.00 0.00 0.00 0.00 0.00 0.00 0.00 0.00 0.00 0.00 0.00 0.00 0.00 0.00 0.00 0.00 0.00 0.00 0.00 0.00 0.00 0.00 0.00 0.00 0.00 0.00 0.00 0.00 0.00 0.00 0.00
0.00 0.00 0.00 0.00 0.00 0.00 0.00 0.00 0.00 0.00 0.00 0.00 0.00 0.00 0.00 0.00 0.00 0.00 0.00 0.00 0.00 0.00 0.00 0.00 0.00 0.00 0.00 0.00 0.00 0.00 0.00 0.00 0.00 0.00 0.00 0.00 0.00 0.00 0.00 0.00 0.00 0.00 0.00
0.00 0.00 0.00 0.00 0.00 0.00 0.00 0.00 0.00 0.00 0.00 0.00 0.00 0.00 0.00 0.00 0.00 0.00 0.00 0.00 0.00 0.00 0.00 0.00 0.00 0.00 0.00 0.00 0.00 0.00 0.00 0.00 0.00 0.00 0.00 0.00 0.00 0.00 0.00 0.00 0.00 0.00 0.01
0.00 0.00 0.00 0.00 0.00 0.00 0.00 0.00 0.00 0.00 0.00 0.00 0.00 0.00 0.00 0.00 0.00 0.00 0.00 0.00 0.00 0.00 0.00 0.00 0.00 0.00 0.00 0.00 0.00 0.00 0.00 0.00 0.00 0.00 0.00 0.00 0.00 0.00 0.00 0.00 0.00 0.01 0.00
0.00 0.00 0.00 0.00 0.00 0.00 0.00 0.00 0.00 0.00 0.00 0.00 0.00 0.00 0.00 0.00 0.00 0.00 0.00 0.00 0.00 0.00 0.00 0.00 0.00 0.00 0.00 0.00 0.00 0.00 0.00 0.00 0.00 0.00 0.00 0.00 0.00 0.00 0.00 0.00 0.00 0.00 0.00
0.00 0.00 0.00 0.00 0.00 0.00 0.00 0.00 0.00 0.00 0.00 0.00 0.00 0.00 0.00 0.00 0.00 0.00 0.00 0.00 0.00 0.00 0.00 0.00 0.00 0.00 0.00 0.00 0.00 0.00 0.00 0.00 0.00 0.00 0.00 0.01 0.00 0.00 0.00 0.01 0.01 0.01 0.00
0.00 0.00 0.00 0.00 0.00 0.00 0.00 0.00 0.00 0.00 0.00 0.00 0.00 0.00 0.00 0.00 0.00 0.00 0.00 0.00 0.00 0.00 0.00 0.00 0.00 0.00 0.00 0.00 0.00 0.00 0.00 0.00 0.00 0.00 0.00 0.00 0.00 0.00 0.01 0.01 0.00 0.00 0.02
0.00 0.00 0.00 0.00 0.00 0.00 0.00 0.00 0.00 0.00 0.00 0.00 0.00 0.00 0.00 0.00 0.00 0.00 0.00 0.00 0.00 0.00 0.00 0.00 0.00 0.00 0.00 0.00 0.00 0.00 0.00 0.00 0.00 0.00 0.00 0.00 0.00 0.00 0.00 0.01 0.02 0.02 0.03
0.00 0.00 0.00 0.00 0.00 0.00 0.00 0.00 0.00 0.00 0.00 0.00 0.00 0.00 0.00 0.00 0.00 0.00 0.00 0.00 0.00 0.00 0.00 0.00 0.00 0.00 0.00 0.00 0.00 0.00 0.00 0.00 0.00 0.00 0.00 0.00 0.01 0.01 0.01 0.02 0.02 0.02 0.02
0.00 0.00 0.00 0.00 0.00 0.00 0.00 0.00 0.00 0.00 0.00 0.00 0.00 0.00 0.00 0.00 0.00 0.00 0.00 0.00 0.00 0.00 0.00 0.00 0.00 0.00 0.00 0.00 0.00 0.00 0.00 0.00 0.00 0.00 0.01 0.02 0.02 0.02 0.02 0.04 0.06 0.05 0.03
MSLP
1011.96 1012.60 1013.31 1014.07 1014.31 1014.80 1015.38 1016.01 1016.91 1017.43 1017.88 1018.09 1017.62 1017.80 1017.99 1018.07 1018.07 1018.14 1018.68 1019.10 1019.70 1020.24 1020.59 1020.39 1021.10 1021.52 1021.37 1021.81 1022.08 1022.56 1022.68 1022.89 1023.33 1023.29 1022.82 1022.49 1023.16 1023.81 1023.83 1023.97 1024.06 1024.08 1024.54
1010.67 1011.85 1012.26 1012.42 1013.37 1013.76 1014.48 1015.21 1016.06 1016.62 1017.21 1017.29 1017.08 1017.04 1017.28 1017.48 1017.48 1017.78 1018.71 1019.30 1019.40 1019.83 1020.12 1020.11 1020.50 1021.15 1021.15 1021.68 1022.10 1022.28 1022.34 1022.58 1023.23 1023.07 1022.88 1022.49 1022.92 1023.11 1023.49 1023.51 1023.68 1024.08 1024.28
1008.90 1010.17 1010.87 1011.20 1012.02 1012.66 1013.45 1014.17 1014.83 1015.34 1015.75 1015.88 1016.24 1016.26 1016.69 1016.88 1017.29 1017.43 1017.97 1018.97 1019.18 1019.18 1019.49 1019.82 1020.20 1020.67 1020.89 1021.54 1021.89 1022.11 1022.15 1022.33 1023.00 1023.41 1023.64 1023.34 1022.56 1022.37 1022.05 1023.01 1023.33 1023.55 1024.01
1007.58 1008.68 1009.63 1010.41 1011.01 1011.75 1012.41 1013.03 1013.60 1014.19 1015.09 1015.31 1015.23 1015.58 1016.07 1016.13 1016.22 1016.95 1018.06 1018.50 1018.83 1018.95 1019.27 1019.60 1020.03 1020.44 1020.92 1021.13 1021.56 1021.76 1022.02 1022.32 1022.50 1023.55 1023.76 1023.77 1023.41 1022.92 1022.03 1021.97 1022.65 1023.30 1023.80
1006.10 1007.07 1008.14 1009.07 1009.99 1010.94 1011.58 1012.37 1012.82 1013.26 1013.72 1014.27 1014.64 1014.93 1015.55 1015.71 1015.91 1016.34 1017.06 1017.97 1018.10 1018.85 1019.14 1019.38 1020.01 1020.50 1020.75 1020.85 1021.36 1021.65 1022.23 1022.69 1023.32 1023.43 1023.67 1023.18 1023.12 1023.29 1023.27 1022.41 1021.98 1022.19 1022.38
1005.09 1005.88 1006.80 1007.90 1008.70 1009.72 1010.62 1011.40 1012.08 1012.46 1012.88 1013.34 1014.25 1014.62 1014.96 1015.78 1015.89 1016.02 1016.67 1017.16 1018.00 1018.63 1018.90 1019.22 1019.69 1020.03 1020.46 1020.76 1021.24 1021.77 1022.50 1023.14 1023.57 1023.98 1023.63 1023.03 1022.84 1022.71 1022.66 1022.47 1022.28 1022.10 1022.13
1003.89 1004.65 1005.45 1006.30 1007.38 1008.42 1009.59 1010.50 1011.14 1011.48 1012.05 1012.94 1013.90 1014.63 1014.94 1014.75 1015.56 1016.13 1016.26 1017.24 1017.69 1018.29 1018.86 1019.11 1019.63 1020.07 1020.47 1020.82 1021.31 1022.21 1022.87 1023.53 1023.78 1023.89 1023.51 1023.16 1023.11 1023.30 1023.16 1023.13 1022.99 1022.52 1022.30
1002.92 1003.60 1004.07 1004.88 1005.83 1006.96 1008.25 1009.46 1010.04 1010.65 1011.28 1012.40 1013.41 1014.76 1014.99 1014.37 1015.18 1015.39 1016.24 1017.11 1017.43 1018.06 1018.88 1019.58 1019.79 1020.15 1020.52 1021.14 1021.91 1022.49 1023.20 1023.68 1023.68 1023.74 1023.38 1023.57 1023.34 1023.31 1023.38 1023.29 1023.32 1022.76 1022.43
1002.10 1002.49 1003.12 1003.79 1004.59 1005.51 1006.72 1008.05 1009.24 1009.95 1010.70 1011.92 1013.74 1013.67 1014.97 1014.87 1014.62 1015.21 1016.13 1016.67 1017.21 1017.80 1018.78 1019.73 1019.86 1020.19 1020.81 1021.35 1021.87 1022.76 1023.08 1023.16 1023.52 1023.67 1023.82 1024.19 1023.98 1023.78 1023.50 1023.53 1023.54 1023.23 1022.75
1002.11 1002.17 1002.39 1002.91 1003.73 1004.55 1005.59 1007.03 1008.37 1009.21 1010.30 1011.74 1012.87 1013.54 1014.41 1014.47 1014.59 1015.32 1015.76 1016.24 1016.78 1017.68 1018.88 1019.35 1019.59 1019.95 1020.50 1021.24 1022.18 1022.51 1022.80 1023.13 1023.48 1023.75 1024.32 1024.21 1023.70 1023.36 1023.32 1023.30 1023.27 1023.12 1022.90
1002.27 1002.82 1003.09 1003.40 1003.77 1004.16 1005.13 1006.40 1007.63 1008.36 1009.38 1010.53 1011.63 1012.37 1013.27 1013.91 1014.52 1015.09 1015.55 1016.04 1016.82 1017.89 1018.51 1019.10 1019.61 1020.01 1020.71 1021.60 1022.26 1022.53 1022.77 1022.75 1023.31 1023.90 1024.12 1023.86 1023.49 1023.18 1023.05 1022.98 1022.89 1022.73 1022.62
1002.34 1002.72 1003.43 1003.95 1004.42 1004.94 1005.44 1006.36 1007.34 1007.98 1008.36 1009.87 1010.77 1011.75 1012.94 1013.59 1014.34 1014.97 1015.52 1016.08 1016.90 1017.50 1017.92 1018.74 1019.29 1020.06 1020.51 1021.45 1022.07 1022.24 1022.66 1022.77 1023.94 1023.92 1023.80 1023.46 1023.00 1022.79 1022.66 1022.66 1022.54 1022.29 1022.12
1002.52 1002.95 1003.52 1004.13 1004.73 1005.36 1005.94 1006.68 1007.43 1007.90 1008.44 1009.04 1010.41 1011.76 1013.07 1013.89 1014.54 1015.24 1015.89 1016.51 1017.10 1017.61 1018.29 1018.88 1019.35 1019.92 1020.55 1021.34 1021.71 1022.15 1022.71 1023.36 1023.55 1023.87 1023.44 1023.07 1022.66 1022.24 1022.24 1022.13 1021.89 1021.52 1021.41
1002.66 1002.94 1003.61 1004.21 1005.02 1005.94 1006.60 1007.29 1007.84 1008.36 1008.95 1009.66 1010.55 1011.72 1013.17 1014.18 1014.90 1015.72 1016.41 1017.06 1017.53 1018.00 1018.42 1018.87 1019.55 1020.08 1020.69 1021.38 1022.07 1022.59 1022.88 1022.94 1023.21 1023.36 1023.04 1022.48 1022.13 1021.87 1021.59 1021.20 1020.91 1020.77 1020.71
1003.03 1003.24 1003.75 1004.45 1005.39 1006.37 1007.00 1007.78 1008.92 1009.64 1010.23 1010.76 1011.39 1012.47 1013.23 1013.84 1014.75 1015.35 1016.04 1016.84 1017.49 1018.11 1018.70 1019.38 1019.86 1020.51 1020.86 1021.49 1021.98 1022.28 1022.39 1022.63 1022.85 1022.95 1022.47 1021.70 1021.25 1021.12 1021.04 1020.91 1020.52 1020.21 1020.13
1003.48 1004.09 1004.34 1005.06 1005.97 1006.92 1007.63 1008.70 1009.51 1010.31 1010.99 1011.35 1012.28 1013.03 1013.62 1014.34 1015.13 1015.71 1016.43 1016.98 1017.60 1018.14 1018.92 1019.78 1020.15 1020.77 1021.26 1021.53 1022.03 1022.39 1022.34 1022.58 1022.59 1022.33 1021.61 1020.84 1020.52 1020.30 1020.22 1020.17 1020.23 1020.46 1020.31
1004.26 1004.87 1005.41 1006.15 1006.93 1007.81 1008.67 1009.51 1010.25 1010.93 1011.66 1012.12 1012.93 1013.74 1014.53 1015.23 1015.97 1016.51 1017.07 1017.67 1018.29 1018.84 1019.59 1020.05 1020.33 1020.64 1020.92 1021.68 1021.90 1022.31 1022.51 1022.36 1022.00 1021.34 1020.70 1020.28 1019.83 1019.63 1019.36 1019.09 1019.12 1019.20 1019.35
1005.28 1006.07 1006.63 1007.23 1007.80 1008.44 1009.33 1010.09 1010.72 1011.39 1012.06 1012.85 1013.64 1014.36 1015.02 1015.61 1016.20 1016.72 1017.31 1017.90 1018.43 1018.81 1019.14 1019.42 1019.68 1020.15 1020.89 1021.44 1021.72 1022.00 1022.02 1021.48 1020.92 1020.48 1020.06 1019.69 1019.40 1019.23 1019.06 1018.72 1018.30 1018.05 1017.98
1005.94 1006.73 1007.36 1008.02 1008.61 1009.21 1009.83 1010.46 1011.24 1011.98 1012.62 1013.23 1013.90 1014.51 1015.03 1015.62 1016.24 1016.79 1017.38 1017.78 1018.08 1018.45 1019.03 1019.69 1019.98 1020.31 1020.44 1020.72 1021.23 1021.63 1021.28 1020.83 1020.44 1020.05 1019.60 1019.29 1019.02 1018.83 1018.79 1018.69 1018.18 1017.46 1016.90
1006.82 1007.40 1007.98 1008.55 1009.16 1009.86 1010.43 1011.04 1011.74 1012.39 1013.05 1013.67 1014.24 1014.85 1015.42 1015.90 1016.67 1017.35 1017.87 1018.43 1018.72 1018.79 1018.95 1019.11 1019.27 1019.53 1020.01 1020.24 1020.82 1021.24 1021.12 1020.84 1020.39 1019.92 1019.38 1019.07 1018.79 1018.50 1018.28 1018.11 1017.84 1017.34 1016.69
1007.35 1008.03 1008.48 1008.99 1009.62 1010.32 1010.92 1011.51 1012.27 1012.96 1013.73 1014.38 1015.18 1015.95 1016.49 1017.02 1017.40 1017.60 1017.79 1017.97 1018.16 1018.53 1018.93 1019.35 1019.58 1019.79 1020.08 1020.46 1021.08 1021.46 1021.44 1021.34 1021.03 1020.47 1019.87 1019.38 1018.95 1018.56 1018.42 1018.27 1017.62 1016.81 1016.64
1007.83 1008.32 1008.95 1009.51 1010.07 1010.63 1011.31 1012.14 1013.03 1014.02 1014.79 1015.48 1016.05 1016.32 1016.73 1017.09 1017.40 1017.65 1018.05 1018.32 1018.50 1018.95 1019.34 1019.69 1019.85 1020.03 1020.33 1020.84 1021.43 1021.76 1021.95 1021.87 1021.37 1020.66 1019.96 1019.24 1018.72 1018.46 1017.96 1017.56 1017.08 1016.77 1016.41
1007.53 1008.41 1009.26 1010.10 1010.86 1011.56 1012.23 1012.76 1013.69 1014.46 1015.01 1015.47 1016.08 1016.59 1017.00 1017.35 1017.71 1017.89 1018.36 1018.56 1019.10 1019.64 1020.02 1020.31 1020.45 1020.47 1020.82 1021.13 1021.73 1021.98 1022.10 1021.81 1021.37 1020.79 1020.08 1019.35 1018.42 1017.61 1016.95 1016.45 1016.01 1015.88 1015.61
1007.60 1008.53 1009.55 1010.41 1011.23 1011.99 1012.70 1013.56 1014.11 1014.62 1015.24 1015.88 1016.47 1016.96 1017.30 1017.78 1018.17 1018.41 1018.86 1019.20 1019.91 1020.53 1020.98 1021.25 1021.34 1021.47 1021.68 1021.75 1022.64 1022.73 1022.25 1021.70 1021.13 1020.52 1019.68 1018.78 1017.87 1017.01 1016.24 1015.44 1014.84 1014.73 1014.48
1007.94 1009.03 1009.94 1010.90 1011.87 1012.69 1013.37 1013.96 1014.49 1015.01 1015.68 1016.51 1017.19 1017.77 1018.31 1018.45 1018.79 1019.30 1019.93 1020.46 1021.59 1022.07 1022.18 1022.26 1022.29 1022.45 1022.70 1023.27 1023.89 1023.47 1022.71 1022.09 1021.47 1020.67 1019.31 1017.76 1016.62 1015.81 1015.09 1014.32 1013.69 1013.35 1013.47
1008.46 1009.65 1010.73 1011.68 1012.59 1013.48 1014.14 1014.61 1015.04 1015.45 1016.28 1017.19 1018.02 1018.68 1019.00 1019.19 1019.30 1019.65 1020.65 1021.60 1021.91 1022.55 1022.88 1023.46 1023.61 1023.43 1023.68 1024.09 1023.97 1023.36 1022.70 1021.99 1021.08 1019.94 1018.74 1018.03 1017.26 1016.49 1015.66 1014.72 1013.90 1012.64 1012.48
Thickness
5634 5633 5629 5625 5624 5621 5617 5614 5608 5606 5605 5604 5609 5609 5609 5613 5615 5616 5612 5609 5606 5604 5601 5603 5598 5596 5596 5591 5589 5584 5582 5578 5572 5569 5571 5571 5563 5553 5548 5541 5534 5530 5522
5645 5638 5639 5641 5634 5632 5628 5623 5618 5615 5611 5613 5616 5619 5618 5617 5618 5617 5610 5607 5606 5602 5602 5602 5600 5594 5593 5587 5584 5582 5579 5574 5567 5564 5561 5559 5550 5542 5538 5535 5528 5520 5512
5658 5650 5648 5650 5646 5642 5637 5633 5630 5627 5627 5627 5626 5627 5624 5621 5617 5617 5615 5606 5605 5605 5605 5601 5598 5593 5589 5583 5580 5576 5573 5568 5562 5554 5546 5541 5541 5538 5534 5523 5518 5511 5502
5670 5663 5658 5653 5651 5648 5646 5643 5641 5638 5631 5632 5633 5629 5623 5621 5624 5620 5611 5608 5605 5605 5602 5599 5594 5590 5583 5580 5575 5571 5567 5562 5557 5545 5537 5531 5527 5522 5521 5517 5508 5499 5492
5681 5675 5668 5664 5661 5656 5652 5648 5646 5643 5642 5639 5636 5632 5625 5626 5626 5623 5617 5608 5606 5600 5597 5596 5589 5583 5578 5576 5569 5565 5557 5551 5540 5536 5527 5526 5521 5511 5503 5503 5500 5491 5486
5688 5685 5681 5675 5670 5664 5659 5654 5649 5647 5646 5643 5635 5632 5629 5620 5618 5617 5612 5610 5604 5596 5594 5590 5585 5581 5575 5570 5562 5555 5547 5537 5528 5519 5517 5515 5508 5503 5497 5492 5487 5482 5475
5694 5690 5685 5682 5677 5671 5663 5658 5653 5650 5649 5641 5636 5629 5626 5628 5618 5610 5607 5601 5600 5594 5588 5584 5580 5575 5568 5562 5554 5545 5535 5525 5517 5511 5508 5502 5496 5487 5482 5475 5469 5467 5461
5701 5696 5695 5690 5684 5678 5670 5662 5658 5654 5651 5637 5631 5623 5622 5628 5619 5611 5605 5600 5597 5589 5580 5574 5571 5566 5560 5552 5542 5534 5523 5515 5509 5503 5499 5488 5482 5476 5469 5462 5454 5452 5447
5704 5703 5702 5698 5693 5687 5678 5670 5660 5656 5651 5641 5623 5617 5615 5619 5622 5616 5606 5599 5592 5586 5576 5567 5564 5558 5550 5541 5533 5521 5513 5509 5500 5491 5483 5471 5466 5460 5456 5448 5439 5432 5427
5699 5703 5705 5703 5699 5693 5686 5676 5666 5658 5650 5639 5628 5622 5616 5619 5617 5609 5603 5598 5592 5581 5569 5563 5558 5551 5542 5532 5521 5514 5505 5497 5487 5478 5464 5458 5455 5450 5443 5436 5428 5420 5412
5694 5692 5694 5696 5696 5694 5687 5677 5667 5661 5653 5646 5636 5630 5622 5616 5610 5604 5598 5593 5584 5571 5564 5556 5549 5542 5532 5521 5511 5503 5495 5489 5476 5462 5453 5449 5445 5439 5431 5424 5416 5408 5398
5691 5692 5688 5686 5684 5681 5679 5672 5665 5660 5657 5644 5638 5630 5619 5612 5604 5597 5591 5585 5575 5567 5559 5549 5541 5531 5524 5512 5500 5493 5485 5477 5457 5448 5443 5439 5436 5430 5421 5412 5404 5395 5387
5685 5685 5682 5677 5675 5672 5668 5663 5659 5656 5652 5646 5634 5621 5608 5601 5595 5588 5580 5571 5564 5556 5547 5538 5531 5521 5512 5500 5491 5482 5471 5458 5449 5439 5434 5429 5423 5419 5410 5401 5394 5387 5377
5678 5679 5675 5671 5667 5660 5656 5652 5649 5647 5642 5635 5627 5616 5602 5592 5585 5576 5567 5558 5551 5543 5536 5528 5517 5508 5497 5487 5475 5463 5454 5450 5439 5429 5423 5419 5413 5406 5399 5392 5384 5374 5362
5668 5669 5667 5664 5657 5649 5646 5641 5632 5627 5622 5617 5612 5601 5594 5588 5578 5570 5562 5552 5543 5534 5524 5513 5504 5493 5484 5474 5463 5455 5448 5437 5426 5417 5413 5412 5406 5398 5387 5377 5369 5357 5345
5660 5657 5658 5652 5645 5638 5633 5626 5619 5614 5608 5605 5595 5588 5582 5574 5566 5559 5549 5541 5532 5523 5511 5498 5490 5479 5470 5460 5450 5441 5435 5423 5414 5408 5406 5402 5395 5388 5378 5367 5352 5337 5328
5647 5645 5642 5637 5631 5624 5617 5610 5605 5601 5594 5589 5581 5573 5565 5557 5549 5541 5533 5524 5515 5506 5494 5485 5477 5468 5461 5449 5439 5428 5418 5410 5404 5401 5397 5391 5383 5372 5363 5353 5346 5334 5318
5633 5628 5625 5622 5619 5614 5607 5601 5596 5590 5583 5575 5567 5559 5552 5545 5538 5531 5522 5512 5503 5495 5487 5479 5471 5460 5447 5435 5425 5415 5408 5404 5399 5393 5386 5378 5369 5358 5345 5336 5328 5318 5310
5624 5618 5614 5609 5605 5601 5596 5591 5584 5577 5571 5565 5559 5552 5545 5537 5529 5521 5510 5502 5495 5486 5475 5462 5453 5443 5436 5426 5413 5403 5400 5395 5389 5382 5373 5363 5353 5342 5328 5314 5308 5306 5300
5611 5606 5603 5599 5594 5589 5585 5579 5573 5567 5561 5554 5547 5540 5532 5525 5514 5503 5494 5484 5475 5469 5461 5453 5446 5436 5424 5415 5402 5390 5385 5380 5375 5366 5357 5346 5335 5325 5315 5303 5289 5283 5285
5600 5595 5592 5588 5584 5579 5573 5567 5561 5554 5546 5538 5529 5520 5511 5502 5495 5488 5481 5474 5466 5457 5448 5438 5429 5419 5409 5398 5385 5372 5362 5353 5347 5341 5335 5326 5314 5302 5291 5279 5274 5269 5262
5589 5587 5581 5577 5574 5570 5563 5555 5546 5536 5527 5519 5511 5505 5497 5489 5481 5473 5464 5457 5450 5440 5431 5420 5410 5401 5390 5379 5366 5352 5339 5328 5322 5317 5312 5305 5296 5284 5274 5264 5256 5248 5241
5588 5581 5573 5565 5560 5554 5547 5541 5531 5522 5515 5508 5499 5489 5481 5473 5465 5458 5448 5441 5430 5419 5409 5399 5390 5381 5370 5359 5346 5331 5320 5311 5302 5295 5288 5280 5275 5269 5262 5254 5246 5237 5231
5581 5574 5565 5557 5549 5542 5534 5524 5516 5509 5500 5491 5481 5472 5465 5455 5446 5439 5429 5422 5409 5397 5386 5376 5366 5356 5344 5336 5319 5308 5300 5293 5287 5280 5274 5265 5257 5251 5245 5242 5238 5230 5224
5571 5561 5553 5544 5534 5525 5517 5508 5500 5492 5483 5471 5461 5451 5441 5435 5427 5416 5405 5395 5378 5368 5361 5352 5342 5331 5319 5305 5290 5282 5277 5271 5263 5257 5255 5255 5251 5246 5241 5235 5231 5226 5219
5556 5545 5535 5526 5516 5506 5497 5489 5482 5474 5463 5451 5439 5427 5420 5413 5408 5400 5385 5366 5359 5348 5338 5324 5313 5303 5294 5280 5270 5264 5256 5249 5243 5241 5240 5233 5226 5221 5218 5216 5214 5220 5216